GW0139 Weather Reports


time (UTC)temp
F
wind
direction
speed
knots
gust
knots
rain 1hr
in
rain 24hr
in
rain mn
in
humidity
%
barometer
mb
20260504192352 79 215 3.5 4.3 0.00 0.00 0.00 69 1012.3
20260504191850 80 177 3.5 5.2 0.00 0.00 0.00 68 1012.3
20260504191348 79 135 0.9 1.7 0.00 0.00 0.00 68 1012.3
20260504190843 78 177 1.7 1.7 0.00 0.00 0.00 71 1012.5
20260504190339 78 186 2.6 2.6 0.00 0.00 0.00 70 1012.4
20260504185836 78 108 1.7 2.6 0.00 0.00 0.00 71 1012.5
20260504185333 79 174 1.7 2.6 0.00 0.00 0.00 69 1012.6
20260504184829 79 208 3.5 4.3 0.00 0.00 0.00 69 1012.6
20260504184325 80 145 2.6 4.3 0.00 0.00 0.00 69 1012.6
20260504183821 79 183 3.5 4.3 0.00 0.00 0.00 69 1012.6
20260504183319 78 171 3.5 4.3 0.00 0.00 0.00 70 1012.9
20260504182816 77 164 4.3 5.2 0.00 0.00 0.00 71 1012.8
20260504182314 79 178 1.7 2.6 0.00 0.00 0.00 70 1012.8
20260504181811 79 193 5.2 6.1 0.00 0.00 0.00 68 1012.9
20260504181308 78 222 2.6 2.6 0.00 0.00 0.00 68 1013.1
20260504180807 79 204 2.6 2.6 0.00 0.00 0.00 67 1013.0
20260504180305 79 207 1.7 2.6 0.00 0.00 0.00 69 1013.2
20260504175803 80 225 2.6 2.6 0.00 0.00 0.00 68 1013.2
20260504175259 78 117 1.7 1.7 0.00 0.00 0.00 67 1013.1
20260504174757 78 151 3.5 4.3 0.00 0.00 0.00 68 1013.1
20260504174255 78 175 3.5 6.1 0.00 0.00 0.00 67 1013.4
20260504173751 79 207 1.7 1.7 0.00 0.00 0.00 68 1013.6
20260504173248 79 210 2.6 4.3 0.00 0.00 0.00 65 1013.6
20260504172745 78 177 2.6 2.6 0.00 0.00 0.00 69 1013.6
20260504172241 78 187 3.5 4.3 0.00 0.00 0.00 69 1013.5
20260504171737 78 242 2.6 2.6 0.00 0.00 0.00 67 1013.7
20260504171235 78 177 3.5 5.2 0.00 0.00 0.00 68 1013.8
20260504170732 77 195 1.7 2.6 0.00 0.00 0.00 68 1014.0
20260504170229 77 124 4.3 6.1 0.00 0.00 0.00 68 1014.0
20260504160147 76 191 2.6 4.3 0.00 0.00 0.00 71 1014.4
20260504151115 76 190 3.5 5.2 0.00 0.00 0.00 71 1014.4
20260504150612 76 208 2.6 2.6 0.00 0.00 0.00 72 1014.6
20260504150109 75 210 0.9 0.9 0.00 0.00 0.00 73 1014.8
20260504141038 74 202 1.7 2.6 0.00 0.00 0.00 75 1014.1
20260504140534 73 185 2.6 4.3 0.00 0.00 0.00 78 1014.4
20260504130459 63 177 0.0 0.0 0.00 0.00 0.00 96 1014.1
20260504110346 55 194 0.0 0.0 0.00 0.00 0.00 99 1014.0
20260504100303 56 196 0.0 0.0 0.00 0.00 0.00 98 1014.3
20260504081657 57 196 0.0 0.0 0.00 0.00 0.00 95 1014.6
20260504081153 57 196 0.0 0.0 0.00 0.00 0.00 95 1015.0
20260504080649 56 196 0.0 0.0 0.00 0.00 0.00 95 1015.1
20260504080146 57 196 0.0 0.0 0.00 0.00 0.00 95 1015.0
20260504070114 57 194 0.0 0.0 0.00 0.00 0.00 95 1015.7
20260504050503 57 195 0.0 0.0 0.00 0.00 0.00 96 1017.0
20260504045959 57 195 0.0 0.0 0.00 0.00 0.00 96 1016.9
20260504045455 57 195 0.0 0.0 0.00 0.00 0.00 96 1016.7
20260504044951 57 195 0.0 0.0 0.00 0.00 0.00 95 1016.8
20260504044449 57 195 0.0 0.0 0.00 0.00 0.00 95 1017.0
20260504043946 57 195 0.0 0.0 0.00 0.00 0.00 95 1017.1
20260504043443 57 195 0.0 0.0 0.00 0.00 0.00 95 1017.1
20260504042941 57 195 0.0 0.0 0.00 0.00 0.00 95 1017.0
20260504042437 57 195 0.0 0.0 0.00 0.00 0.00 94 1016.9
20260504041934 57 195 0.0 0.0 0.00 0.00 0.00 94 1017.1
20260504041430 57 195 0.0 0.0 0.00 0.00 0.00 94 1016.8
20260504040926 57 195 0.0 0.0 0.00 0.00 0.00 94 1016.8
20260504040424 57 195 0.0 0.0 0.00 0.00 0.00 93 1016.9
20260504035920 57 195 0.0 0.0 0.00 0.00 0.00 93 1017.0
20260504035417 57 195 0.0 0.0 0.00 0.00 0.00 92 1017.0
20260504034914 57 195 0.0 0.0 0.00 0.00 0.00 92 1017.0
20260504034412 58 195 0.0 0.0 0.00 0.00 0.00 91 1017.0
20260504033908 58 195 0.0 0.0 0.00 0.00 0.00 91 1016.7
20260504033406 58 195 0.0 0.0 0.00 0.00 0.00 91 1016.9
20260504032903 58 195 0.0 0.0 0.00 0.00 0.00 90 1016.9
20260504032400 59 195 0.0 0.0 0.00 0.00 0.00 90 1017.0
20260504031856 59 195 0.0 0.0 0.00 0.00 0.00 90 1016.8
20260504031353 59 195 0.0 0.0 0.00 0.00 0.00 89 1016.9
20260504030850 59 195 0.0 0.0 0.00 0.00 0.00 88 1016.8
20260504030347 59 195 0.0 0.0 0.00 0.00 0.00 87 1016.7
20260504025843 60 195 0.0 0.0 0.00 0.00 0.00 87 1016.9
20260504025340 59 195 0.0 0.0 0.00 0.00 0.00 86 1016.8
20260504024837 60 195 0.0 0.0 0.00 0.00 0.00 86 1017.0
20260504024333 60 195 0.0 0.0 0.00 0.00 0.00 86 1016.9
20260504023830 60 195 0.0 0.0 0.00 0.00 0.00 85 1017.1
20260504023327 61 195 0.0 0.0 0.00 0.00 0.00 85 1016.8
20260504022823 61 194 0.0 0.0 0.00 0.00 0.00 85 1017.1
20260504022320 60 193 0.0 0.0 0.00 0.00 0.00 84 1016.6
20260504021816 60 193 0.0 0.0 0.00 0.00 0.00 83 1016.8
20260504021314 60 194 0.0 0.0 0.00 0.00 0.00 82 1016.9
20260504020811 61 194 0.0 0.0 0.00 0.00 0.00 82 1016.7
20260504020308 62 194 0.0 0.0 0.00 0.00 0.00 82 1016.9
20260504015803 62 194 0.0 0.0 0.00 0.00 0.00 81 1016.9
20260504015300 63 184 0.0 0.0 0.00 0.00 0.00 80 1016.7
20260504014755 63 184 0.0 0.0 0.00 0.00 0.00 78 1016.9
20260504014252 63 184 0.0 0.0 0.00 0.00 0.00 77 1016.8
20260504013750 64 184 0.0 0.0 0.00 0.00 0.00 76 1016.9
20260504013247 64 184 0.0 0.0 0.00 0.00 0.00 76 1017.0
20260504012743 64 183 0.0 0.0 0.00 0.00 0.00 74 1017.0
20260504012242 65 183 0.0 0.0 0.00 0.00 0.00 74 1016.8
20260504011738 65 186 0.0 0.0 0.00 0.00 0.00 73 1016.9
20260504011235 66 183 0.0 0.0 0.00 0.00 0.00 74 1016.9
20260504010731 66 185 0.0 0.0 0.00 0.00 0.00 71 1016.7
20260504010227 67 183 0.0 0.0 0.00 0.00 0.00 70 1016.8
20260504005724 67 181 0.0 0.0 0.00 0.00 0.00 68 1016.8
20260504005221 68 181 0.0 0.0 0.00 0.00 0.00 69 1016.9
20260504004719 68 181 0.0 0.0 0.00 0.00 0.00 68 1016.8
20260504004215 68 182 0.0 0.0 0.00 0.00 0.00 64 1016.8
20260504003712 69 193 0.0 0.0 0.00 0.00 0.00 65 1016.8
20260504003209 69 185 0.0 0.9 0.00 0.00 0.00 65 1016.8
20260504002706 69 177 0.9 0.9 0.00 0.00 0.00 63 1016.9
20260504002203 70 175 0.0 0.9 0.00 0.00 0.00 63 1016.6
20260504001701 71 168 1.7 1.7 0.00 0.00 0.00 59 1016.5
20260504001156 71 172 0.0 0.9 0.00 0.00 0.00 60 1016.8
20260504000654 72 182 0.9 1.7 0.00 0.00 0.00 57 1016.8
20260504000151 72 167 2.6 2.6 0.00 0.00 0.00 56 1016.7
20260503235649 73 151 1.7 1.7 0.00 0.00 0.00 56 1016.8
20260503235145 72 93 0.0 0.9 0.00 0.00 0.00 56 1016.6
20260503234644 73 128 2.6 4.3 0.00 0.00 0.00 54 1016.9
20260503234142 73 149 1.7 2.6 0.00 0.00 0.00 55 1017.0
20260503233638 73 114 0.9 0.9 0.00 0.00 0.00 55 1017.2
20260503233133 73 165 1.7 1.7 0.00 0.00 0.00 54 1016.9
20260503232631 73 166 2.6 2.6 0.00 0.00 0.00 55 1017.3
20260503232128 73 176 0.9 1.7 0.00 0.00 0.00 54 1017.1
20260503231626 73 127 1.7 1.7 0.00 0.00 0.00 54 1017.1
20260503231122 74 176 2.6 2.6 0.00 0.00 0.00 53 1017.2
20260503230619 74 169 1.7 1.7 0.00 0.00 0.00 52 1017.3
20260503230117 74 143 1.7 1.7 0.00 0.00 0.00 50 1017.4
20260503225614 75 149 2.6 4.3 0.00 0.00 0.00 51 1017.4
20260503225113 75 154 2.6 2.6 0.00 0.00 0.00 50 1017.2
20260503224611 75 164 3.5 5.2 0.00 0.00 0.00 51 1017.5
20260503224109 76 190 1.7 1.7 0.00 0.00 0.00 52 1017.5
20260503223607 76 192 0.9 1.7 0.00 0.00 0.00 48 1017.8
20260503223102 76 191 2.6 2.6 0.00 0.00 0.00 50 1017.9
20260503222600 76 209 4.3 5.2 0.00 0.00 0.00 48 1017.6
20260503222058 76 227 2.6 2.6 0.00 0.00 0.00 47 1017.5
20260503221556 76 182 3.5 6.1 0.00 0.00 0.00 50 1017.6
20260503221053 76 188 2.6 2.6 0.00 0.00 0.00 50 1017.6
20260503220549 75 198 2.6 2.6 0.00 0.00 0.00 47 1017.6
20260503220046 76 110 1.7 1.7 0.00 0.00 0.00 48 1017.4
20260503215543 76 151 2.6 2.6 0.00 0.00 0.00 48 1017.8
20260503215040 77 154 4.3 5.2 0.00 0.00 0.00 46 1018.0
20260503214538 76 183 2.6 2.6 0.00 0.00 0.00 47 1017.8
20260503214035 76 175 0.9 0.9 0.00 0.00 0.00 45 1017.8
20260503213533 77 141 0.0 0.9 0.00 0.00 0.00 48 1018.0
20260503213030 77 210 2.6 2.6 0.00 0.00 0.00 49 1018.0
20260503212527 77 167 4.3 5.2 0.00 0.00 0.00 45 1018.1
20260503212024 76 135 1.7 1.7 0.00 0.00 0.00 46 1018.4
20260503211521 77 162 4.3 5.2 0.00 0.00 0.00 47 1018.3
20260503211017 77 253 0.9 0.9 0.00 0.00 0.00 50 1018.2
20260503210514 76 200 2.6 2.6 0.00 0.00 0.00 48 1018.3
20260503210009 78 154 1.7 2.6 0.00 0.00 0.00 47 1018.5
20260503205506 77 169 2.6 4.3 0.00 0.00 0.00 48 1018.4
20260503205002 77 150 0.9 1.7 0.00 0.00 0.00 51 1018.4
20260503204500 77 174 2.6 2.6 0.00 0.00 0.00 47 1018.4
20260503203956 78 207 0.9 1.7 0.00 0.00 0.00 47 1018.5
20260503203454 77 169 0.9 1.7 0.00 0.00 0.00 47 1018.7
20260503202950 77 229 1.7 1.7 0.00 0.00 0.00 48 1018.9
20260503202449 77 193 1.7 1.7 0.00 0.00 0.00 49 1019.0
20260503201947 77 107 4.3 5.2 0.00 0.00 0.00 46 1019.0
20260503201444 77 175 1.7 2.6 0.00 0.00 0.00 44 1019.0
20260503200941 78 193 1.7 2.6 0.00 0.00 0.00 46 1018.9
20260503200438 77 195 1.7 1.7 0.00 0.00 0.00 45 1019.1
20260503195934 77 160 2.6 4.3 0.00 0.00 0.00 45 1019.2
20260503195432 77 205 4.3 5.2 0.00 0.00 0.00 47 1019.2
20260503194928 77 204 0.9 1.7 0.00 0.00 0.00 46 1019.3
20260503194425 77 191 2.6 4.3 0.00 0.00 0.00 46 1019.4
20260503193920 77 124 2.6 4.3 0.00 0.00 0.00 46 1019.3
20260503193416 76 166 4.3 7.0 0.00 0.00 0.00 48 1019.5
20260503192912 77 110 2.6 4.3 0.00 0.00 0.00 49 1019.5